Date String (YYYY-MM-DD hh:mm:ss) UTC,Instrument flags,absolute air pressure of the measurement (hPa),sample flow rate (lpm),inlet stack bypass flow (lpm),air temperature of the measurement (°C),ambient temperature measured by the external sensor (°C),aerosol sample conditioner tube jacket temperature (°C),OPC LED temperature (°C),internal box temperature (°C),relative humidity of the measurement (%),span deviation,mass concentration of particles derived from Lorenz-Mie calculation of OPC scattering (μg/m³),mass concentration of particles derived from Lorenz-Mie calculation of OPC scattering (μg/m³),mass concentration of particles derived from Lorenz-Mie calculation of OPC scattering (μg/m³)
DateTimeUTC,F1_M11,P_M11,Q1_M11,Q2_M11,T1_M11,T2_M11,T3_M11,T4_M11,T5_M11,U1_M11,ZSPAN_M11,X2_M11,X0_M11,X1_M11
2024-02-26 17:00:00,SystemResetWarning,0819.3,5.00,000.00,021.0,020.3,000.0,029.1,022.7,11.6,0000.0,0001.53,0003.62,0000.65
2024-02-26 17:01:00,SystemResetWarning,0819.2,5.00,000.00,021.0,020.3,000.0,029.1,022.7,11.8,0000.0,0001.53,0003.68,0000.65
2024-02-26 17:02:00,SystemResetWarning,0819.1,5.00,000.00,021.0,020.3,000.0,029.1,022.7,11.8,0000.0,0001.55,0003.77,0000.66
2024-02-26 17:03:00,SystemResetWarning,0819.2,4.99,000.00,021.0,020.3,000.0,029.1,022.7,11.9,0000.0,0001.52,0003.75,0000.67
2024-02-26 17:04:00,SystemResetWarning,0819.1,5.01,000.00,021.0,020.3,000.0,029.1,022.7,11.7,0000.0,0001.58,0004.31,0000.66
2024-02-26 17:05:00,SystemResetWarning,0819.3,5.01,000.00,021.0,020.3,000.0,029.1,022.7,11.4,0000.0,0001.68,0004.52,0000.67
2024-02-26 17:06:00,SystemResetWarning,0819.2,5.00,000.00,021.0,020.4,000.0,029.1,022.7,11.2,0000.0,0001.69,0005.77,0000.68
2024-02-26 17:07:00,SystemResetWarning,0819.2,4.99,000.00,021.0,020.4,000.0,029.1,022.7,11.6,0000.0,0001.65,0006.38,0000.68
2024-02-26 17:08:00,SystemResetWarning,0819.2,4.99,000.00,021.0,020.4,000.0,029.1,022.7,11.5,0000.0,0001.64,0006.34,0000.68
2024-02-26 17:09:00,SystemResetWarning,0819.2,5.01,000.00,021.0,020.4,000.0,029.1,022.7,11.3,0000.0,0001.61,0006.63,0000.68
2024-02-26 17:10:00,SystemResetWarning,0819.2,5.01,000.00,021.0,020.4,000.0,029.1,022.8,11.1,0000.0,0001.60,0007.05,0000.69
2024-02-26 17:11:00,SystemResetWarning,0819.2,4.99,000.00,021.1,020.4,000.0,029.1,022.8,11.2,0000.0,0001.61,0006.91,0000.69
2024-02-26 17:12:00,SystemResetWarning,0819.3,5.00,000.00,021.1,020.4,000.0,029.1,022.8,11.1,0000.0,0001.66,0006.98,0000.69
2024-02-26 17:13:00,SystemResetWarning,0819.3,5.00,000.00,021.1,020.4,000.0,029.1,022.8,11.2,0000.0,0001.64,0006.87,0000.68
2024-02-26 17:14:00,SystemResetWarning,0819.2,5.00,000.00,021.1,020.4,000.0,029.1,022.8,11.4,0000.0,0001.65,0007.22,0000.68
2024-02-26 17:15:00,SystemResetWarning,0819.3,5.00,000.00,021.1,020.4,000.0,029.1,022.8,11.6,0000.0,0001.62,0007.23,0000.69
2024-02-26 17:16:00,SystemResetWarning,0819.3,5.00,000.00,021.1,020.4,000.0,029.2,022.8,11.7,0000.0,0001.56,0007.14,0000.69
2024-02-26 17:17:00,SystemResetWarning,0819.2,5.00,000.00,021.1,020.4,000.0,029.1,022.8,11.7,0000.0,0001.56,0005.93,0000.68
2024-02-26 17:18:00,SystemResetWarning,0819.2,5.00,000.00,021.1,020.5,000.0,029.2,022.8,11.1,0000.0,0001.59,0005.37,0000.70
2024-02-26 17:19:00,SystemResetWarning,0819.1,5.01,000.00,021.1,020.5,000.0,029.2,022.8,11.1,0000.0,0001.60,0005.41,0000.69
2024-02-26 17:20:00,SystemResetWarning,0819.2,5.01,000.00,021.1,020.5,000.0,029.2,022.8,11.3,0000.0,0001.62,0005.16,0000.70
2024-02-26 17:21:00,SystemResetWarning,0819.1,4.98,000.00,021.1,020.5,000.0,029.2,022.8,11.5,0000.0,0001.63,0004.81,0000.71
2024-02-26 17:22:00,SystemResetWarning,0818.9,5.00,000.00,021.1,020.5,000.0,029.2,022.8,11.2,0000.0,0001.64,0005.00,0000.72
2024-02-26 17:23:00,SystemResetWarning,0818.9,5.01,000.00,021.1,020.5,000.0,029.2,022.8,11.0,0000.0,0001.61,0005.86,0000.72
2024-02-26 17:24:00,SystemResetWarning,0819.1,5.00,000.00,021.1,020.5,000.0,029.2,022.8,11.2,0000.0,0001.59,0006.27,0000.73
2024-02-26 17:25:00,SystemResetWarning,0819.0,4.99,000.00,021.2,020.5,000.0,029.2,022.9,11.6,0000.0,0001.59,0005.79,0000.72
2024-02-26 17:26:00,SystemResetWarning,0819.0,4.99,000.00,021.2,020.5,000.0,029.2,022.9,11.6,0000.0,0001.62,0005.56,0000.72
2024-02-26 17:27:00,SystemResetWarning,0819.0,5.00,000.00,021.2,020.5,000.0,029.2,022.9,11.5,0000.0,0001.62,0005.54,0000.72
2024-02-26 17:28:00,SystemResetWarning,0818.9,5.00,000.00,021.2,020.5,000.0,029.2,022.9,11.6,0000.0,0001.64,0005.56,0000.72
2024-02-26 17:29:00,SystemResetWarning,0819.1,5.00,000.00,021.2,020.5,000.0,029.2,022.9,11.3,0000.0,0001.63,0005.49,0000.71
2024-02-26 17:30:00,SystemResetWarning,0819.0,5.01,000.00,021.2,020.5,000.0,029.3,022.9,11.4,0000.0,0001.66,0005.60,0000.70
2024-02-26 17:31:00,SystemResetWarning,0819.0,5.00,000.00,021.2,020.6,000.0,029.3,022.9,11.5,0000.0,0001.64,0005.49,0000.69
2024-02-26 17:32:00,SystemResetWarning,0819.2,4.99,000.00,021.2,020.6,000.0,029.3,022.9,11.4,0000.0,0001.57,0005.14,0000.67
2024-02-26 17:33:00,SystemResetWarning,0819.0,4.99,000.00,021.2,020.6,000.0,029.3,022.9,11.9,0000.0,0001.51,0004.84,0000.67
2024-02-26 17:34:00,SystemResetWarning,0819.0,4.99,000.00,021.2,020.6,000.0,029.3,022.9,11.6,0000.0,0001.52,0004.14,0000.67
2024-02-26 17:35:00,SystemResetWarning,0819.0,5.01,000.00,021.3,020.6,000.0,029.3,023.0,11.8,0000.0,0001.56,0003.86,0000.68
2024-02-26 17:36:00,SystemResetWarning,0819.0,5.00,000.00,021.3,020.6,000.0,029.3,022.9,11.9,0000.0,0001.59,0003.88,0000.70
2024-02-26 17:37:00,SystemResetWarning,0819.0,5.00,000.00,021.3,020.7,000.0,029.3,023.0,11.9,0000.0,0001.54,0003.71,0000.70
2024-02-26 17:38:00,SystemResetWarning,0819.0,5.00,000.00,021.3,020.7,000.0,029.3,023.0,11.8,0000.0,0001.53,0004.10,0000.71
2024-02-26 17:39:00,SystemResetWarning,0819.1,5.00,000.00,021.3,020.7,000.0,029.3,023.0,11.4,0000.0,0001.57,0004.26,0000.71
2024-02-26 17:40:00,SystemResetWarning,0819.2,5.00,000.00,021.3,020.7,000.0,029.3,023.0,11.7,0000.0,0001.53,0004.14,0000.71
2024-02-26 17:41:00,SystemResetWarning,0819.0,5.00,000.00,021.3,020.7,000.0,029.3,023.0,11.7,0000.0,0001.50,0004.08,0000.71
2024-02-26 17:42:00,SystemResetWarning,0819.0,4.99,000.00,021.3,020.7,000.0,029.4,023.0,11.8,0000.0,0001.53,0004.84,0000.71
2024-02-26 17:43:00,SystemResetWarning,0819.0,5.00,000.00,021.4,020.7,000.0,029.4,023.0,11.8,0000.0,0001.56,0005.33,0000.71
2024-02-26 17:44:00,SystemResetWarning,0819.0,5.00,000.00,021.4,020.7,000.0,029.4,023.0,11.9,0000.0,0001.63,0005.72,0000.72
2024-02-26 17:45:00,SystemResetWarning,0818.9,5.00,000.00,021.4,020.7,000.0,029.4,023.0,11.8,0000.0,0001.61,0005.64,0000.72
2024-02-26 17:46:00,SystemResetWarning,0818.9,5.00,000.00,021.4,020.7,000.0,029.4,023.1,11.9,0000.0,0001.57,0005.98,0000.70
2024-02-26 17:47:00,SystemResetWarning,0818.9,5.00,000.00,021.4,020.7,000.0,029.4,023.1,12.1,0000.0,0001.50,0005.77,0000.69
2024-02-26 17:48:00,SystemResetWarning,0818.9,5.00,000.00,021.4,020.7,000.0,029.4,023.1,12.0,0000.0,0001.51,0005.77,0000.67
2024-02-26 17:49:00,SystemResetWarning,0819.0,5.00,000.00,021.4,020.7,000.0,029.4,023.1,12.1,0000.0,0001.52,0005.61,0000.66
2024-02-26 17:50:00,SystemResetWarning,0819.0,4.99,000.00,021.4,020.7,000.0,029.4,023.1,11.9,0000.0,0001.58,0006.37,0000.66
2024-02-26 17:51:00,SystemResetWarning,0819.0,4.99,000.00,021.4,020.7,000.0,029.4,023.1,12.0,0000.0,0001.58,0007.68,0000.67
2024-02-26 17:52:00,SystemResetWarning,0818.9,5.00,000.00,021.4,020.8,000.0,029.4,023.1,11.9,0000.0,0001.61,0007.86,0000.67
2024-02-26 17:53:00,SystemResetWarning,0819.1,5.01,000.00,021.4,020.8,000.0,029.5,023.1,11.4,0000.0,0001.59,0007.94,0000.67
2024-02-26 17:54:00,SystemResetWarning,0818.9,5.01,000.00,021.4,020.8,000.0,029.5,023.1,11.7,0000.0,0001.53,0007.36,0000.67
2024-02-26 17:55:00,SystemResetWarning,0819.0,4.99,000.00,021.4,020.8,000.0,029.5,023.1,11.8,0000.0,0001.50,0007.19,0000.66
2024-02-26 17:56:00,SystemResetWarning,0818.9,4.99,000.00,021.5,020.8,000.0,029.5,023.1,11.9,0000.0,0001.49,0007.10,0000.65
2024-02-26 17:57:00,SystemResetWarning,0818.9,4.99,000.00,021.5,020.8,000.0,029.5,023.1,11.9,0000.0,0001.55,0006.89,0000.66
2024-02-26 17:58:00,SystemResetWarning,0818.9,5.00,000.00,021.5,020.8,000.0,029.5,023.1,11.5,0000.0,0001.58,0006.85,0000.67
2024-02-26 17:59:00,SystemResetWarning,0818.9,5.01,000.00,021.5,020.8,000.0,029.5,023.1,11.5,0000.0,0001.53,0006.70,0000.67
